星链-1068 (STARLINK-1068 )

导读 | 星芒AI

STARLINK-1068 是 SpaceX Starlink 计划中的一颗低轨通信卫星,属于第 11 批部署的 Starlink 卫星群。该卫星于 2020 年 11 月 19 日由猎鹰 9 号火箭从卡纳维拉尔角发射升空,旨在为全球提供高速互联网服务。STARLINK-1068 运行在约 550 公里的轨道高度,采用先进的相控阵天线和激光通信技术,以提升连接速度和网络稳定性。作为 Starlink 网络的一部分,它支持偏远地区的宽带接入,推动全球互联网覆盖的普及。

基本信息
目录编号:
44772
目录名称:
STARLINK-1068
国际标识:
2019-074BM
轨道中心:
EARTH
卫星名称:
星链-1068
卫星全名:
星链-1068 (STARLINK-1068 )
卫星状态:
在轨 (已飞行2224 天)
发射日期:
2019-11-11 UTC
国别 :
美国 (US)
星等 :
--
轨道信息
数据来源 国际轨道数据
星历时间: 2025-12-13T08:00:08+0800
9小时前
查看轨道信息
半长轴: 6891.422km
偏心率: 0.000145
轨道倾角: 53.055°
近地点辐角 90.441°
升交点赤经 235.441°
平近点角 334.336°
近地点: 512.287km
远地点: 514.287km
周期: 94.891分钟
每日圈数: 15.175379
详细信息
固有亮度:
5
最大亮度:
2.5
卫星平台:
Starlink V1.0
覆盖范围:
全球
运营商:
太空探索技术公司
运营商所在国:
美国
制造商(研发单位):
太空探索技术公司
制造商所在国:
美国
使用方式:
暂无
卫星简介
星链(Starlink)计划是由太空探索技术公司(SpaceX)提出的一个巨型低轨卫星互联网星座项目,计划在2019年至2024年间在太空搭建由约1.2万颗卫星组成的“星链”网络,其中1584颗将部署在地球上空550千米处的近地轨道,并从2020年开始工作。该卫星仍在工作。
2D轨道图
3D轨道图
轨道高度分析图
轨道倾角分析图
轨道综合分析图
查看轨道综合分析图